DW6352 Weather Reports


time (UTC)temp
C
wind
direction
speed
KPH
gust
KPH
rain 1hr
cm
rain 24hr
cm
rain mn
cm
humidity
%
barometer
mb
20260510004557 12 342 12.9 22.5 0.00 0.33 0.33 34 1011.0
20260510003054 12 298 9.7 22.5 0.00 0.33 0.33 34 1010.7
20260510001552 12 325 11.3 25.7 0.00 0.33 0.33 33 1010.6
20260510000051 12 316 11.3 25.7 0.00 0.33 0.33 32 1010.4
20260509234604 12 342 14.5 25.7 0.00 0.33 0.33 31 1010.3
20260509233046 12 326 12.9 24.1 0.00 0.33 0.33 31 1010.0
20260509231545 13 324 8.0 24.1 0.00 0.33 0.33 32 1009.9
20260509230045 13 319 12.9 25.7 0.00 0.33 0.33 30 1009.7
20260509224543 13 306 17.7 27.4 0.00 0.33 0.33 31 1009.6
20260509223042 13 343 17.7 33.8 0.00 0.33 0.33 30 1009.4
20260509221540 13 9 14.5 27.4 0.00 0.33 0.33 30 1009.2
20260509220040 13 31 17.7 32.2 0.00 0.33 0.33 31 1009.2
20260509214542 13 320 17.7 32.2 0.00 0.33 0.33 30 1009.1
20260509213037 14 312 20.9 38.6 0.00 0.33 0.33 31 1009.0
20260509211542 13 319 16.1 37.0 0.00 0.33 0.33 32 1008.8
20260509210034 13 350 22.5 37.0 0.00 0.33 0.33 31 1008.7
20260509204533 13 333 25.7 41.8 0.00 0.33 0.33 31 1008.6
20260509203034 13 341 17.7 35.4 0.00 0.33 0.33 33 1008.7
20260509201531 13 34 17.7 32.2 0.00 0.33 0.33 33 1008.6
20260509200029 13 331 22.5 43.5 0.00 0.33 0.33 33 1008.7
20260509194529 13 336 22.5 43.5 0.00 0.33 0.33 33 1008.6
20260509193030 13 293 12.9 37.0 0.00 0.33 0.33 34 1008.4
20260509191527 13 311 17.7 37.0 0.00 0.33 0.33 36 1008.3
20260509190024 12 349 22.5 35.4 0.00 0.33 0.33 36 1008.1
20260509184530 12 311 16.1 37.0 0.00 0.33 0.33 36 1008.1
20260509183020 12 322 22.5 37.0 0.00 0.33 0.33 37 1007.9
20260509181518 12 327 11.3 35.4 0.00 0.33 0.33 38 1007.8
20260509180018 12 312 20.9 38.6 0.00 0.33 0.33 35 1007.8
20260509174514 12 360 17.7 33.8 0.00 0.33 0.33 36 1007.7
20260509173010 12 284 20.9 33.8 0.00 0.33 0.33 36 1007.6
20260509171509 12 22 19.3 33.8 0.00 0.33 0.33 37 1007.4
20260509170007 12 321 14.5 32.2 0.00 0.33 0.33 39 1007.3
20260509164504 11 330 22.5 37.0 0.00 0.33 0.33 42 1007.1
20260509163007 11 13 17.7 32.2 0.00 0.33 0.33 43 1007.0
20260509161502 11 296 17.7 33.8 0.00 0.33 0.33 43 1006.9
20260509160058 11 25 17.7 38.6 0.00 0.33 0.33 43 1006.7
20260509154557 11 344 19.3 35.4 0.00 0.33 0.33 44 1006.5
20260509153053 11 288 14.5 32.2 0.00 0.33 0.33 52 1006.2
20260509151552 10 312 19.3 33.8 0.00 0.33 0.33 51 1006.1
20260509150049 10 300 22.5 37.0 0.00 0.33 0.33 54 1005.9
20260509144547 10 277 19.3 32.2 0.00 0.33 0.33 57 1005.6
20260509143042 10 311 16.1 25.7 0.00 0.33 0.33 61 1005.2
20260509141538 10 325 11.3 27.4 0.00 0.33 0.33 66 1005.0
20260509140037 9 5 16.1 29.0 0.00 0.33 0.33 70 1004.9
20260509134534 9 346 16.1 25.7 0.00 0.33 0.33 74 1004.8
20260509133031 8 319 19.3 27.4 0.00 0.33 0.33 80 1004.6
20260509131529 8 344 11.3 24.1 0.00 0.33 0.33 86 1004.4
20260509130047 7 331 9.7 17.7 0.00 0.33 0.33 89 1004.3
20260509124523 7 298 6.4 14.5 0.00 0.33 0.33 90 1004.1
20260509123021 7 312 6.4 12.9 0.00 0.33 0.33 89 1003.7
20260509121515 7 304 6.4 12.9 0.00 0.33 0.33 89 1003.5
20260509120021 7 310 4.8 14.5 0.00 0.33 0.33 89 1003.3
20260509114510 7 312 4.8 12.9 0.00 0.33 0.33 89 1003.0
20260509113009 7 300 3.2 9.7 0.00 0.33 0.33 88 1002.8
20260509111506 7 336 3.2 9.7 0.00 0.33 0.33 87 1002.5
20260509110001 7 318 3.2 9.7 0.03 0.33 0.33 87 1002.4
20260509104559 7 321 3.2 8.0 0.03 0.33 0.33 87 1002.1
20260509103101 7 296 1.6 6.4 0.08 0.33 0.33 86 1001.9
20260509101556 7 262 1.6 4.8 0.15 0.33 0.33 86 1001.7
20260509100055 7 45 0.0 3.2 0.15 0.30 0.30 85 1001.5
20260509094554 7 45 0.0 0.0 0.23 0.30 0.30 84 1001.5
20260509093053 7 45 0.0 6.4 0.23 0.25 0.25 84 1001.7
20260509091559 8 44 6.4 12.9 0.18 0.18 0.18 83 1001.7
20260509090050 8 328 9.7 16.1 0.15 0.15 0.15 81 1002.0
20260509084547 8 349 6.4 19.3 0.08 0.08 0.08 78 1001.7
20260509083045 9 360 4.8 16.1 0.03 0.03 0.03 74 1001.6
20260509081549 10 324 17.7 27.4 0.00 0.00 0.00 68 1001.9
20260509080041 11 38 16.1 33.8 0.00 0.00 0.00 57 1001.5
20260509074539 12 317 20.9 35.4 0.00 0.00 0.00 47 1001.5
20260509073035 11 309 12.9 29.0 0.00 0.00 0.00 49 1001.4
20260509071531 10 272 8.0 19.3 0.00 0.00 0.00 48 1001.6
20260509070128 10 322 4.8 14.5 0.00 0.00 0.00 48 1001.4
20260509064525 8 324 4.8 8.0 0.00 0.00 0.00 52 1001.7
20260509063024 7 323 3.2 6.4 0.00 0.00 0.00 57 1001.6
20260509061522 7 305 0.0 0.0 0.00 0.00 0.00 57 1001.1
20260509060024 7 305 0.0 0.0 0.00 0.00 0.00 57 1000.9
20260509054517 8 305 1.6 3.2 0.00 0.00 0.00 56 1001.2
20260509053014 8 305 1.6 4.8 0.00 0.00 0.00 50 1001.3
20260509051511 9 305 1.6 4.8 0.00 0.00 0.00 50 1001.3
20260509050008 10 305 0.0 4.8 0.00 0.00 0.00 44 1001.7
20260509044507 10 306 1.6 4.8 0.00 0.00 0.00 41 1001.5
20260509043006 11 306 1.6 4.8 0.00 0.00 0.00 36 1001.5
20260509041508 12 327 1.6 6.4 0.00 0.00 0.00 34 1002.0
20260509040005 12 294 1.6 9.7 0.00 0.00 0.00 33 1001.9
20260509034505 12 281 4.8 11.3 0.00 0.00 0.00 32 1002.0
20260509033004 13 307 6.4 14.5 0.00 0.00 0.00 31 1002.0
20260509031504 13 300 4.8 12.9 0.00 0.00 0.00 31 1001.8
20260509030009 14 277 6.4 17.7 0.00 0.00 0.00 30 1001.8
20260509024504 14 279 11.3 20.9 0.00 0.00 0.00 29 1001.7
20260509023002 15 305 12.9 20.9 0.00 0.00 0.00 29 1001.4
20260509021503 15 313 11.3 27.4 0.00 0.00 0.00 29 1001.4
20260509020005 16 296 17.7 33.8 0.00 0.00 0.00 28 1001.0
20260509014502 16 295 19.3 37.0 0.00 0.00 0.00 28 1000.7
20260509013104 17 301 12.9 25.7 0.00 0.00 0.00 28 1000.5
20260509011600 17 302 16.1 30.6 0.00 0.00 0.00 27 1000.3